Regional Weather Roundup
Issued by NWS

Home | Current Version | Previous Version | Graphics & Text | Print | Product List | Glossary On
Versions: 1 2 3 4 5 6 7 8 9 10 11 12 13 14 15 16 17 18 19 20 21 22 23 24 25 26 27 28 29 30 31 32 33 34 35 36 37 38 39 40 41 42 43 44 45 46 47 48 49 50
000
ASUS43 KFSD 211910
RWRSD

WEATHER ROUNDUP FOR SOUTH DAKOTA
NATIONAL WEATHER SERVICE SIOUX FALLS SD
200 PM CDT SUN SEP 21 2014

NOTE: "FAIR" INDICATES FEW OR NO CLOUDS BELOW 12,000 FEET WITH NO
SIGNIFICANT WEATHER AND/OR OBSTRUCTIONS TO VISIBILITY.


SDZ001>005-009-010-012>017-212000-
NORTHWEST AND NORTH CENTRAL SOUTH DAKOTA

CITY           SKY/WX    TMP DP  RH WIND       PRES   REMARKS
BUFFALO          N/A     71  34  25 CALM      30.25F
FAITH            N/A     69  38  32 N6        30.31F
MOBRIDGE       SUNNY     70  45  40 MISG      30.26F
$$

SDZ012>016-024>037-041>051-057-063-072>074-212000-
SOUTHWEST AND SOUTH CENTRAL SOUTH DAKOTA

CITY           SKY/WX    TMP DP  RH WIND       PRES   REMARKS
RAPID CTY ARPT SUNNY     71  38  29 VRB5      30.33F
PIERRE         SUNNY     70  43  37 VRB7      30.28F
CUSTER         SUNNY     66  34  30 MISG      30.39F
ELLSWORTH AFB  SUNNY     72  38  29 SE8       30.32F
PHILIP         SUNNY     73  38  27 VRB6      30.30F
PINE RIDGE     SUNNY     70  37  29 VRB3      30.34F
WINNER         FAIR      72  40  31 NW9       30.30F
$$

SDZ004>011-016>023-039-040-212000-
NORTHEAST SOUTH DAKOTA

CITY           SKY/WX    TMP DP  RH WIND       PRES   REMARKS
ABERDEEN       PTSUNNY   67  47  48 N8        30.26F
WATERTOWN      SUNNY     67  45  45 N14       30.24S
SISSETON         N/A     68  49  50 N14       30.22F
$$

SDZ017-020-022-023-036>040-048>070-212000-
SOUTHEAST SOUTH DAKOTA

CITY           SKY/WX    TMP DP  RH WIND       PRES   REMARKS
SIOUX FALLS    MOSUNNY   70  45  40 N10G26    30.23F
HURON          MOSUNNY   71  45  39 N16G25    30.26F
CHAMBERLAIN    SUNNY     70  42  36 NW8G21    30.28F
MITCHELL       MOSUNNY   71  45  39 N10G22    30.27F
YANKTON        PTSUNNY   66  46  48 N15G21    30.25F
$$

ABBREVIATIONS USED IN REMARKS
   TC - TEMPERATURE IN CELSIUS
  WCI - WIND CHILL INDEX
   HX - HEAT INDEX
  VSB - VISIBILITY




USA.gov is the U.S. government's official web portal to all federal, state and local government web resources and services.